Погода в Пересыпкине 2-ом

Россия / Тамбовская область     52°55′52″N   42°50′15″E
темп.,
°C
ветер,
м/с
пор.,
м/с
влажн.,
%
обл.,
%
осадки,
мм/ч
давл.,
гПа
погр.,
м
6 марта, сб
сб600:00−9з349240 0.0 101433
03:00−10зсз239570 0.0 101621
06:00−11ссз129299 0.0 101621
09:00−10св1191100 0.0 101732
12:00−7св1183100 0.0 1016176
15:00−6ссв1186100 0.0 1015157
18:00−10ссз118785 0.0 101521
21:00−12сз238745 0.0 101521
7 марта, вс
вс700:00−13зсз349547 0.0 101531
03:00−14з349524 0.0 101546
06:00−14зюз47960 0.0 101599
09:00−11юз511921 0.0 1014310
12:00−7юз8148490 0.0 1010838
15:00−5юз10168295 0.0 10061017
18:00−5юз101893100 0.5 10021119
21:00−3юз91595100 2.3 10001024
8 марта, пн
пн800:00−7з488799 0.9 1001193
03:00−11юз5108461 0.9 1002141
06:00−12ююз45852 0.0 100086
09:00−6юз6139343 0.0 998569
12:00−4зюз101578100 0.4 9971777
15:00−7з10158282 0.4 10001157
18:00−8зсз8167979 0.1 1003716
21:00−10з6148866 0.1 1006512
9 марта, вт
вт900:00−11з5119395 0.0 1008340
03:00−12з5109594 0.1 1010307
06:00−14з479799 0.1 1012144
09:00−13зсз479592 0.1 1013268
12:00−11зсз469083 0.0 1014492
15:00−10зсз478691 0.0 1015675
18:00−14зсз4994100 0.0 1015208
21:00−17зсз499676 0.0 1018167
10 марта, ср
ср1000:00−19зсз449962 0.0 102078
03:00−20зсз3410067 0.0 102151
06:00−20з349994 0.0 102156
09:00−15зюз239597 0.1 1020189
12:00−12юв2293100 0.6 1020312
15:00−10в2291100 0.9 1019296
18:00−13св359699 0.1 1019110
21:00−16св469699 0.3 1021131